Weather in Budy

Ukraine / Kharkiv Region     49°53′36″N   36°01′27″E
temp.,
°C
wind,
m/s
gust,
m/s
humid.,
%
clouds,
%
prec.,
mm/h
press.,
hPa
HPBL,
m
12 may, wed
wed1200:00+8ene81484100 0.2 10181402
03:00+8e81383100 0.3 10171325
06:00+8e71382100 0.1 10181257
09:00+9e71379100 0.3 10191429
12:00+8e41090100 0.3 10181118
15:00+9e4887100 0.9 10161027
18:00+10ese487660 0.3 1015929
21:00+8e389288 1.3 1014251
13 may, thu
thu1300:00+8se499776 2.3 1013338
03:00+6se499839 2.9 1014265
06:00+7se3796100 0.0 1014226
09:00+11se467968 0.0 1014509
12:00+16s4657100 0.0 10141592
15:00+18s46495 0.0 10131904
18:00+18s3660100 0.0 1013624
21:00+13ese1176100 0.0 101310
14 may, fri
fri1400:00+12e338577 0.0 101340
03:00+12e3590100 0.0 101281
06:00+12ese3109280 0.0 1012222
09:00+18se59805 0.3 1011553
12:00+22sse5765100 0.0 1010982
15:00+24sse5757100 0.0 10101398
18:00+23sse4866100 0.1 1009556
21:00+18sse228494 2.9 100922
15 may, sat
sat1500:00+16wsw228680 2.1 100920
03:00+14sw2281100 2.1 100914
06:00+14ssw3587100 0.0 1010113
09:00+18sw357124 0.0 1011549
12:00+22sw4654100 0.0 10111625
15:00+23ssw6749100 0.0 10112162
18:00+21wsw366394 0.1 1012534
21:00+16nnw117774 0.1 101211
16 may, sun
sun1600:00+15ese1178100 0.0 101211
03:00+14ese11834 0.0 101311
06:00+14e118174 0.0 101311
09:00+20e2363100 0.0 1013403
12:00+24e3446100 0.0 10121615
15:00+24ene4547100 0.0 10111691
18:00+23ne4762100 0.0 1010527
21:00+17ne41291100 1.9 1009274